Retour au catalogue

YAM-10

ActifRadio amateurSSO
NORAD 64580·PAYLOAD·🇺🇸 United States

Lancé Jun 23, 2025 depuis Vandenberg Space Force Base

Loading…

Prochains Passages (prochaines 24 heures)

TLE

FraisSource: Space-Track

Époque: Sep 14, 2026, 17:57 UTC

1 64580U 25135BE  26257.74805852  .00001360  00000-0  13943-3 0  9993
2 64580  97.7802  10.4044 0004385  67.8671 292.3013 14.92070050 67210

Suivez YAM-10 en temps réel avec AllMySat

Download on the App Store